User: anonymous   Login
Location: Newark
(40.2370°N, 1.4081°W)
Time: 08:55:22
(UTC+00:00)
Language:

Gurwin Techsat 1B - Orbit

View from above orbital plane
View from above orbital plane
View from above satellite
View from above satellite

Ground track
Ground track

The orbit data is extracted from the following two-line orbital elements,

1 25397U 98043D   19341.87754939 -.00000025 +00000-0 +85601-5 0  9993
2 25397 098.7072 280.0611 0000266 218.0218 142.0941 14.23675633112156
Epoch (UTC): 07 December 2019 21:03:40
Eccentricity: 0.0000266
inclination: 98.7072°
perigee height: 813 km
apogee height: 813 km
right ascension of ascending node: 280.0611°
argument of perigee: 218.0218°
revolutions per day: 14.23675633
mean anomaly at epoch: 142.0941°
orbit number at epoch: 11215

The dashed part of the orbit path shows where the satellite is in the earth's shadow,  

DLR